This demonstration page uses our WeatherBlox Daily Observations layout. Learn more.

Left ArrowRight Arrow

Hourly Observations for December 10, 2019

Temp ( °F °C ) Dew Point ( °F °C ) Humidity (%) Winds ( mph kmh ) Pressure ( in mb ) Visibility ( mi km ) Precip ( " mm )
12:52 am 00:52 Mostly Clear 14 -10 9 -12.8 80 80 SSE 7 11 30.14 1021 10 16 0.00 0.00
1:52 am 01:52 Partly Cloudy 15 -9.4 11 -11.7 84 84 SE 7 11 30.14 1021 10 16 0.00 0.00
2:52 am 02:52 Cloudy 17 -8.3 12 -11.1 80 80 SSE 3 6 30.16 1022 10 16 0.00 0.00
3:52 am 03:52 Cloudy 20 -6.7 12 -11.1 71 71 Calm 30.17 1022 10 16 0.00 0.00
4:52 am 04:52 Partly Cloudy 19 -7.2 13 -10.6 77 77 NNW 3 6 30.18 1022 10 16 0.00 0.00
5:52 am 05:52 Cloudy 22 -5.6 16 -8.9 78 78 NNW 12 19 30.22 1023 10 16 0.00 0.00
6:52 am 06:52 Mostly Clear 20 -6.7 15 -9.4 81 81 NNW 14 22 30.26 1025 10 16 0.00 0.00
7:52 am 07:52 Mostly Cloudy 20 -6.7 15 -9.4 81 81 NNW 6 9 30.29 1026 10 16 0.00 0.00
8:52 am 08:52 Mostly Cloudy 22 -5.6 14 -10 71 71 NW 9 15 30.32 1027 10 16 0.00 0.00
9:52 am 09:52 Mostly Cloudy with Light Snow 22 -5.6 15 -9.4 75 75 NW 15 24 30.36 1028 9 14 0.00 0.00
10:11 am 10:11 Cloudy with Light Snow 21 -6.1 15 -9.4 78 78 N 16 26 30.41 1030 3 5 0.00 0.00
10:36 am 10:36 Mostly Cloudy 21 -6.1 14 -10 74 74 N 13 20 30.42 1030 9 14 0.00 0.00
10:52 am 10:52 Mostly Cloudy 23 -5 13 -10.6 65 65 NNW 10 17 30.38 1029 10 16 0.00 0.00
11:52 am 11:52 Mostly Cloudy 23 -5 11 -11.7 60 60 NNW 15 24 30.39 1029 10 16 0.00 0.00
12:52 pm 12:52 Mostly Cloudy with Light Snow 22 -5.6 13 -10.6 68 68 NW 16 26 30.39 1029 8 13 0.00 0.00
1:52 pm 13:52 Mostly Cloudy 23 -5 11 -11.7 60 60 WNW 12 19 30.38 1029 10 16 0.00 0.00
2:52 pm 14:52 Partly Cloudy 22 -5.6 9 -12.8 57 57 NW 10 17 30.38 1029 10 16 0.00 0.00
3:52 pm 15:52 Partly Cloudy 21 -6.1 8 -13.3 57 57 NW 12 19 30.39 1029 10 16 0.00 0.00
4:52 pm 16:52 Mostly Sunny 19 -7.2 9 -12.8 65 65 WNW 6 9 30.39 1029 10 16 0.00 0.00
5:52 pm 17:52 Partly Cloudy 19 -7.2 9 -12.8 65 65 Calm 30.39 1029 10 16 0.00 0.00
6:52 pm 18:52 Partly Cloudy 17 -8.3 8 -13.3 68 68 Calm 30.38 1029 10 16 0.00 0.00
7:52 pm 19:52 Mostly Cloudy 18 -7.8 8 -13.3 65 65 S 5 7 30.37 1029 10 16 0.00 0.00
8:52 pm 20:52 Partly Cloudy 18 -7.8 9 -12.8 68 68 S 10 17 30.35 1028 10 16 0.00 0.00
9:52 pm 21:52 Mostly Cloudy 19 -7.2 10 -12.2 68 68 S 12 19 30.32 1027 10 16 0.00 0.00
10:52 pm 22:52 Partly Cloudy 20 -6.7 10 -12.2 65 65 SSE 16 26 30.31 1026 10 16 0.00 0.00
11:52 pm 23:52 Partly Cloudy 22 -5.6 10 -12.2 60 60 S 14 22 30.28 1025 10 16 0.00 0.00

Powered by AerisWeather